COSMOS 2539

Last updated on Sat Sep 13 2025 00:02:50 GMT+0000 (Coordinated Universal Time)

1 44457U 19048A 25255.16128694 .00000076 00000+0 00000+0 0 9993 2 44457 0.0131 129.8910 0000473 98.7201 192.8646 1.00273574 22438
UTC large
Height (km)
Speed (km/s)
/
Latitude / Longitude
Inclination (degrees)
Orbital Period (minutes)
Azimuth
Elevation
Range (km)
Doppler Factor

Next 0 passes for location: London (51.5072 / 0.1276)

Sorry there are no passes over London.